Year,Month,Day,Hour,Minute,Value (Times are PST for temperature in C)
2014,08,10,00,00,17.40
2014,08,10,00,01,17.40
2014,08,10,00,02,17.40
2014,08,10,00,03,17.40
2014,08,10,00,04,17.30
2014,08,10,00,05,17.30
2014,08,10,00,06,17.20
2014,08,10,00,07,17.20
2014,08,10,00,08,17.20
2014,08,10,00,09,17.20
2014,08,10,00,10,17.20
2014,08,10,00,11,17.20
2014,08,10,00,12,17.20
2014,08,10,00,13,17.20
2014,08,10,00,14,17.20
2014,08,10,00,15,17.20
2014,08,10,00,16,17.20
2014,08,10,00,17,17.20
2014,08,10,00,18,17.20
2014,08,10,00,19,17.20
2014,08,10,00,20,17.10
2014,08,10,00,21,17.10
2014,08,10,00,22,17.10
2014,08,10,00,23,17.10
2014,08,10,00,24,17.10
2014,08,10,00,25,17.10
2014,08,10,00,26,17.10
2014,08,10,00,27,17.10
2014,08,10,00,28,17.10
2014,08,10,00,29,17.00
2014,08,10,00,30,17.00
2014,08,10,00,31,17.00
2014,08,10,00,32,17.00
2014,08,10,00,33,17.00
2014,08,10,00,34,16.90
2014,08,10,00,35,16.90
2014,08,10,00,36,16.90
2014,08,10,00,37,16.90
2014,08,10,00,38,16.90
2014,08,10,00,39,16.90
2014,08,10,00,40,16.90
2014,08,10,00,41,16.90
2014,08,10,00,42,16.90
2014,08,10,00,43,16.90
2014,08,10,00,44,16.80
2014,08,10,00,45,16.80
2014,08,10,00,46,16.80
2014,08,10,00,47,16.80
2014,08,10,00,48,16.80
2014,08,10,00,49,16.80
2014,08,10,00,50,16.70
2014,08,10,00,51,16.70
2014,08,10,00,52,16.70
2014,08,10,00,53,16.60
2014,08,10,00,54,16.60
2014,08,10,00,55,16.60
2014,08,10,00,56,16.60
2014,08,10,00,57,16.50
2014,08,10,00,58,16.50
2014,08,10,00,59,16.50
2014,08,10,01,00,16.40
2014,08,10,01,01,16.40
2014,08,10,01,02,16.40
2014,08,10,01,03,16.40
2014,08,10,01,04,16.40
2014,08,10,01,05,16.40
2014,08,10,01,06,16.40
2014,08,10,01,07,16.40
2014,08,10,01,08,16.40
2014,08,10,01,09,16.40
2014,08,10,01,10,16.40
2014,08,10,01,11,16.40
2014,08,10,01,12,16.40
2014,08,10,01,13,16.40
2014,08,10,01,14,16.40
2014,08,10,01,15,16.40
2014,08,10,01,16,16.40
2014,08,10,01,17,16.40
2014,08,10,01,18,16.40
2014,08,10,01,19,16.40
2014,08,10,01,20,16.40
2014,08,10,01,21,16.40
2014,08,10,01,22,16.40
2014,08,10,01,23,16.30
2014,08,10,01,24,16.30
2014,08,10,01,25,16.30
2014,08,10,01,26,16.30
2014,08,10,01,27,16.30
2014,08,10,01,28,16.30
2014,08,10,01,29,16.30
2014,08,10,01,30,16.30
2014,08,10,01,31,16.30
2014,08,10,01,32,16.30
2014,08,10,01,33,16.30
2014,08,10,01,34,16.20
2014,08,10,01,35,16.20
2014,08,10,01,36,16.20
2014,08,10,01,37,16.20
2014,08,10,01,38,16.20
2014,08,10,01,39,16.20
2014,08,10,01,40,16.20
2014,08,10,01,41,16.20
2014,08,10,01,42,16.20
2014,08,10,01,43,16.20
2014,08,10,01,44,16.20
2014,08,10,01,45,16.20
2014,08,10,01,46,16.20
2014,08,10,01,47,16.20
2014,08,10,01,48,16.20
2014,08,10,01,49,16.20
2014,08,10,01,50,16.20
2014,08,10,01,51,16.20
2014,08,10,01,52,16.20
2014,08,10,01,53,16.20
2014,08,10,01,54,16.20
2014,08,10,01,55,16.20
2014,08,10,01,56,16.20
2014,08,10,01,57,16.20
2014,08,10,01,58,16.20
2014,08,10,01,59,16.20
2014,08,10,02,00,16.20
2014,08,10,02,01,16.20
2014,08,10,02,02,16.20
2014,08,10,02,03,16.20
2014,08,10,02,04,16.20
2014,08,10,02,05,16.10
2014,08,10,02,06,16.10
2014,08,10,02,07,16.10
2014,08,10,02,08,16.00
2014,08,10,02,09,16.00
2014,08,10,02,10,16.00
2014,08,10,02,11,16.00
2014,08,10,02,12,16.00
2014,08,10,02,13,16.00
2014,08,10,02,14,16.00
2014,08,10,02,15,16.00
2014,08,10,02,16,16.00
2014,08,10,02,17,16.00
2014,08,10,02,18,16.00
2014,08,10,02,19,16.00
2014,08,10,02,20,16.10
2014,08,10,02,21,16.10
2014,08,10,02,22,16.10
2014,08,10,02,23,16.00
2014,08,10,02,24,16.00
2014,08,10,02,25,16.00
2014,08,10,02,26,16.00
2014,08,10,02,27,16.00
2014,08,10,02,28,16.00
2014,08,10,02,29,16.10
2014,08,10,02,30,16.10
2014,08,10,02,31,16.10
2014,08,10,02,32,16.10
2014,08,10,02,33,16.10
2014,08,10,02,34,16.10
2014,08,10,02,35,16.10
2014,08,10,02,36,16.10
2014,08,10,02,37,16.10
2014,08,10,02,38,16.10
2014,08,10,02,39,16.00
2014,08,10,02,40,16.00
2014,08,10,02,41,16.10
2014,08,10,02,42,16.10
2014,08,10,02,43,16.10
2014,08,10,02,44,16.10
2014,08,10,02,45,16.10
2014,08,10,02,46,16.10
2014,08,10,02,47,16.10
2014,08,10,02,48,16.10
2014,08,10,02,49,16.10
2014,08,10,02,50,16.00
2014,08,10,02,51,16.00
2014,08,10,02,52,15.90
2014,08,10,02,53,15.90
2014,08,10,02,54,15.90
2014,08,10,02,55,15.80
2014,08,10,02,56,15.80
2014,08,10,02,57,15.80
2014,08,10,02,58,15.80
2014,08,10,02,59,15.80
2014,08,10,03,00,15.80
2014,08,10,03,01,15.80
2014,08,10,03,02,15.70
2014,08,10,03,06,15.70
2014,08,10,03,07,15.70
2014,08,10,03,08,15.70
2014,08,10,03,09,15.70
2014,08,10,03,10,15.60
2014,08,10,03,11,15.60
2014,08,10,03,12,15.60
2014,08,10,03,13,15.60
2014,08,10,03,14,15.60
2014,08,10,03,15,15.60
2014,08,10,03,16,15.50
2014,08,10,03,17,15.50
2014,08,10,03,18,15.50
2014,08,10,03,19,15.40
2014,08,10,03,20,15.40
2014,08,10,03,21,15.40
2014,08,10,03,22,15.40
2014,08,10,03,23,15.40
2014,08,10,03,24,15.40
2014,08,10,03,25,15.40
2014,08,10,03,26,15.40
2014,08,10,03,27,15.30
2014,08,10,03,28,15.30
2014,08,10,03,29,15.20
2014,08,10,03,30,15.10
2014,08,10,03,31,15.10
2014,08,10,03,32,15.00
2014,08,10,03,33,14.90
2014,08,10,03,34,14.90
2014,08,10,03,35,14.80
2014,08,10,03,36,14.80
2014,08,10,03,37,14.70
2014,08,10,03,38,14.60
2014,08,10,03,39,14.60
2014,08,10,03,40,14.50
2014,08,10,03,41,14.50
2014,08,10,03,42,14.40
2014,08,10,03,43,14.40
2014,08,10,03,44,14.30
2014,08,10,03,45,14.30
2014,08,10,03,46,14.30
2014,08,10,03,47,14.30
2014,08,10,03,48,14.20
2014,08,10,03,49,14.20
2014,08,10,03,50,14.20
2014,08,10,03,51,14.20
2014,08,10,03,52,14.20
2014,08,10,03,53,14.10
2014,08,10,03,54,14.10
2014,08,10,03,55,14.10
2014,08,10,03,56,14.10
2014,08,10,03,57,14.10
2014,08,10,03,58,14.10
2014,08,10,03,59,14.10
2014,08,10,04,00,14.10
2014,08,10,04,01,14.10
2014,08,10,04,02,14.10
2014,08,10,04,03,14.00
2014,08,10,04,04,14.00
2014,08,10,04,05,14.00
2014,08,10,04,06,14.00
2014,08,10,04,07,13.90
2014,08,10,04,08,13.90
2014,08,10,04,09,13.90
2014,08,10,04,10,13.90
2014,08,10,04,11,13.90
2014,08,10,04,12,13.90
2014,08,10,04,13,13.90
2014,08,10,04,14,13.90
2014,08,10,04,15,13.90
2014,08,10,04,16,13.90
2014,08,10,04,17,13.90
2014,08,10,04,18,13.90
2014,08,10,04,19,13.90
2014,08,10,04,20,13.90
2014,08,10,04,21,13.90
2014,08,10,04,22,13.90
2014,08,10,04,23,13.90
2014,08,10,04,24,13.90
2014,08,10,04,25,13.90
2014,08,10,04,26,13.90
2014,08,10,04,27,13.80
2014,08,10,04,28,13.90
2014,08,10,04,29,13.90
2014,08,10,04,30,13.90
2014,08,10,04,31,13.90
2014,08,10,04,32,13.90
2014,08,10,04,33,13.90
2014,08,10,04,34,14.00
2014,08,10,04,35,14.00
2014,08,10,04,36,14.00
2014,08,10,04,37,14.00
2014,08,10,04,38,14.10
2014,08,10,04,39,14.10
2014,08,10,04,40,14.10
2014,08,10,04,41,14.10
2014,08,10,04,42,14.10
2014,08,10,04,43,14.10
2014,08,10,04,44,14.20
2014,08,10,04,45,14.20
2014,08,10,04,46,14.20
2014,08,10,04,47,14.30
2014,08,10,04,48,14.30
2014,08,10,04,49,14.30
2014,08,10,04,50,14.30
2014,08,10,04,51,14.40
2014,08,10,04,52,14.40
2014,08,10,04,53,14.50
2014,08,10,04,54,14.60
2014,08,10,04,55,14.60
2014,08,10,04,56,14.70
2014,08,10,04,57,14.70
2014,08,10,04,58,14.80
2014,08,10,04,59,14.90
2014,08,10,05,00,14.90
2014,08,10,05,01,15.00
2014,08,10,05,02,15.10
2014,08,10,05,03,15.10
2014,08,10,05,04,15.20
2014,08,10,05,05,15.20
2014,08,10,05,06,15.20
2014,08,10,05,07,15.20
2014,08,10,05,08,15.30
2014,08,10,05,09,15.30
2014,08,10,05,10,15.30
2014,08,10,05,11,15.30
2014,08,10,05,12,15.40
2014,08,10,05,13,15.40
2014,08,10,05,14,15.40
2014,08,10,05,15,15.50
2014,08,10,05,16,15.50
2014,08,10,05,17,15.60
2014,08,10,05,18,15.60
2014,08,10,05,19,15.60
2014,08,10,05,20,15.70
2014,08,10,05,21,15.60
2014,08,10,05,22,15.60
2014,08,10,05,23,15.60
2014,08,10,05,24,15.50
2014,08,10,05,25,15.50
2014,08,10,05,26,15.40
2014,08,10,05,27,15.40
2014,08,10,05,28,15.30
2014,08,10,05,29,15.30
2014,08,10,05,30,15.30
2014,08,10,05,31,15.20
2014,08,10,05,32,15.10
2014,08,10,05,33,15.10
2014,08,10,05,34,15.00
2014,08,10,05,35,14.90
2014,08,10,05,36,14.90
2014,08,10,05,37,14.80
2014,08,10,05,38,14.80
2014,08,10,05,39,14.80
2014,08,10,05,40,14.70
2014,08,10,05,41,14.70
2014,08,10,05,42,14.70
2014,08,10,05,43,14.60
2014,08,10,05,44,14.60
2014,08,10,05,45,14.60
2014,08,10,05,46,14.60
2014,08,10,05,47,14.60
2014,08,10,05,48,14.60
2014,08,10,05,49,14.60
2014,08,10,05,50,14.60
2014,08,10,05,51,14.50
2014,08,10,05,52,14.50
2014,08,10,05,53,14.50
2014,08,10,05,54,14.50
2014,08,10,05,55,14.50
2014,08,10,05,56,14.50
2014,08,10,05,57,14.50
2014,08,10,05,58,14.60
2014,08,10,05,59,14.60
2014,08,10,06,00,14.60
2014,08,10,06,01,14.60
2014,08,10,06,02,14.70
2014,08,10,06,03,14.70
2014,08,10,06,04,14.70
2014,08,10,06,05,14.70
2014,08,10,06,06,14.70
2014,08,10,06,07,14.70
2014,08,10,06,08,14.70
2014,08,10,06,09,14.70
2014,08,10,06,10,14.70
2014,08,10,06,11,14.60
2014,08,10,06,12,14.60
2014,08,10,06,13,14.60
2014,08,10,06,14,14.60
2014,08,10,06,15,14.60
2014,08,10,06,16,14.60
2014,08,10,06,17,14.60
2014,08,10,06,18,14.60
2014,08,10,06,19,14.60
2014,08,10,06,20,14.60
2014,08,10,06,21,14.60
2014,08,10,06,22,14.60
2014,08,10,06,23,14.60
2014,08,10,06,24,14.60
2014,08,10,06,25,14.60
2014,08,10,06,26,14.60
2014,08,10,06,27,14.60
2014,08,10,06,28,14.60
2014,08,10,06,29,14.60
2014,08,10,06,30,14.60
2014,08,10,06,31,14.60
2014,08,10,06,32,14.60
2014,08,10,06,33,14.60
2014,08,10,06,34,14.70
2014,08,10,06,35,14.70
2014,08,10,06,36,14.70
2014,08,10,06,37,14.70
2014,08,10,06,38,14.70
2014,08,10,06,39,14.80
2014,08,10,06,40,14.80
2014,08,10,06,41,14.80
2014,08,10,06,42,14.80
2014,08,10,06,43,14.90
2014,08,10,06,44,14.90
2014,08,10,06,45,15.00
2014,08,10,06,46,15.00
2014,08,10,06,47,15.00
2014,08,10,06,48,15.10
2014,08,10,06,49,15.10
2014,08,10,06,50,15.20
2014,08,10,06,51,15.20
2014,08,10,06,52,15.30
2014,08,10,06,53,15.30
2014,08,10,06,54,15.30
2014,08,10,06,55,15.40
2014,08,10,06,56,15.40
2014,08,10,06,57,15.40
2014,08,10,06,58,15.40
2014,08,10,06,59,15.40
2014,08,10,07,00,15.40
2014,08,10,07,01,15.40
2014,08,10,07,02,15.30
2014,08,10,07,03,15.30
2014,08,10,07,04,15.20
2014,08,10,07,05,15.20
2014,08,10,07,06,15.20
2014,08,10,07,07,15.20
2014,08,10,07,08,15.20
2014,08,10,07,09,15.20
2014,08,10,07,10,15.20
2014,08,10,07,11,15.20
2014,08,10,07,12,15.20
2014,08,10,07,13,15.20
2014,08,10,07,14,15.30
2014,08,10,07,15,15.30
2014,08,10,07,16,15.30
2014,08,10,07,17,15.40
2014,08,10,07,18,15.40
2014,08,10,07,19,15.50
2014,08,10,07,20,15.50
2014,08,10,07,21,15.60
2014,08,10,07,22,15.60
2014,08,10,07,23,15.70
2014,08,10,07,24,15.70
2014,08,10,07,25,15.80
2014,08,10,07,26,15.80
2014,08,10,07,27,15.90
2014,08,10,07,28,15.90
2014,08,10,07,29,16.00
2014,08,10,07,30,16.00
2014,08,10,07,31,16.10
2014,08,10,07,32,16.10
2014,08,10,07,33,16.10
2014,08,10,07,34,16.10
2014,08,10,07,35,16.20
2014,08,10,07,36,16.20
2014,08,10,07,37,16.20
2014,08,10,07,38,16.30
2014,08,10,07,39,16.30
2014,08,10,07,40,16.30
2014,08,10,07,41,16.30
2014,08,10,07,42,16.40
2014,08,10,07,43,16.40
2014,08,10,07,44,16.40
2014,08,10,07,45,16.50
2014,08,10,07,46,16.50
2014,08,10,07,47,16.60
2014,08,10,07,48,16.60
2014,08,10,07,49,16.60
2014,08,10,07,50,16.70
2014,08,10,07,51,16.70
2014,08,10,07,52,16.70
2014,08,10,07,53,16.70
2014,08,10,07,54,16.70
2014,08,10,07,55,16.80
2014,08,10,07,56,16.80
2014,08,10,07,57,16.90
2014,08,10,07,58,16.90
2014,08,10,07,59,17.00
2014,08,10,08,00,17.00
2014,08,10,08,01,17.10
2014,08,10,08,02,17.10
2014,08,10,08,03,17.20
2014,08,10,08,04,17.20
2014,08,10,08,05,17.30
2014,08,10,08,06,17.40
2014,08,10,08,07,17.50
2014,08,10,08,08,17.60
2014,08,10,08,09,17.70
2014,08,10,08,10,17.90
2014,08,10,08,11,18.00
2014,08,10,08,12,18.10
2014,08,10,08,13,18.30
2014,08,10,08,14,18.50
2014,08,10,08,15,18.70
2014,08,10,08,16,18.80
2014,08,10,08,17,18.80
2014,08,10,08,18,18.80
2014,08,10,08,19,18.80
2014,08,10,08,20,18.70
2014,08,10,08,21,18.60
2014,08,10,08,22,18.50
2014,08,10,08,23,18.40
2014,08,10,08,24,18.20
2014,08,10,08,25,18.00
2014,08,10,08,26,17.90
2014,08,10,08,27,17.80
2014,08,10,08,28,17.80
2014,08,10,08,29,17.80
2014,08,10,08,30,17.80
2014,08,10,08,31,17.80
2014,08,10,08,32,17.90
2014,08,10,08,33,17.90
2014,08,10,08,34,18.00
2014,08,10,08,35,18.10
2014,08,10,08,36,18.20
2014,08,10,08,37,18.30
2014,08,10,08,38,18.40
2014,08,10,08,39,18.50
2014,08,10,08,40,18.60
2014,08,10,08,41,18.70
2014,08,10,08,42,18.80
2014,08,10,08,43,18.90
2014,08,10,08,44,19.00
2014,08,10,08,45,19.10
2014,08,10,08,46,19.20
2014,08,10,08,47,19.20
2014,08,10,08,48,19.30
2014,08,10,08,49,19.40
2014,08,10,08,50,19.40
2014,08,10,08,51,19.50
2014,08,10,08,52,19.60
2014,08,10,08,53,19.70
2014,08,10,08,54,19.70
2014,08,10,08,55,19.80
2014,08,10,08,56,19.80
2014,08,10,08,57,19.90
2014,08,10,08,58,19.90
2014,08,10,08,59,19.90
2014,08,10,09,00,19.80
2014,08,10,09,01,19.80
2014,08,10,09,02,19.80
2014,08,10,09,03,19.70
2014,08,10,09,04,19.70
2014,08,10,09,05,19.70
2014,08,10,09,06,19.70
2014,08,10,09,07,19.70
2014,08,10,09,08,19.70
2014,08,10,09,09,19.60
2014,08,10,09,10,19.70
2014,08,10,09,11,19.70
2014,08,10,09,12,19.70
2014,08,10,09,13,19.70
2014,08,10,09,14,19.70
2014,08,10,09,15,19.70
2014,08,10,09,16,19.80
2014,08,10,09,17,19.80
2014,08,10,09,18,19.80
2014,08,10,09,19,19.80
2014,08,10,09,20,19.80
2014,08,10,09,21,19.90
2014,08,10,09,22,19.90
2014,08,10,09,23,19.90
2014,08,10,09,24,19.90
2014,08,10,09,25,20.00
2014,08,10,09,26,20.00
2014,08,10,09,27,20.10
2014,08,10,09,28,20.20
2014,08,10,09,29,20.20
2014,08,10,09,30,20.20
2014,08,10,09,31,20.30
2014,08,10,09,32,20.30
2014,08,10,09,33,20.30
2014,08,10,09,34,20.30
2014,08,10,09,35,20.30
2014,08,10,09,36,20.40
2014,08,10,09,37,20.30
2014,08,10,09,38,20.30
2014,08,10,09,39,20.30
2014,08,10,09,40,20.20
2014,08,10,09,41,20.10
2014,08,10,09,42,20.10
2014,08,10,09,43,20.00
2014,08,10,09,44,20.00
2014,08,10,09,45,20.10
2014,08,10,09,46,20.10
2014,08,10,09,47,20.10
2014,08,10,09,48,20.10
2014,08,10,09,49,20.10
2014,08,10,09,50,20.10
2014,08,10,09,51,20.10
2014,08,10,09,52,20.20
2014,08,10,09,53,20.20
2014,08,10,09,54,20.30
2014,08,10,09,55,20.30
2014,08,10,09,56,20.40
2014,08,10,09,57,20.50
2014,08,10,09,58,20.60
2014,08,10,09,59,20.70
2014,08,10,10,00,20.80
2014,08,10,10,01,20.80
2014,08,10,10,02,20.70
2014,08,10,10,03,20.70
2014,08,10,10,04,20.80
2014,08,10,10,05,20.80
2014,08,10,10,06,20.80
2014,08,10,10,07,20.80
2014,08,10,10,08,20.80
2014,08,10,10,09,20.80
2014,08,10,10,10,20.80
2014,08,10,10,11,20.90
2014,08,10,10,12,20.90
2014,08,10,10,13,20.90
2014,08,10,10,14,20.90
2014,08,10,10,15,21.00
2014,08,10,10,16,21.10
2014,08,10,10,17,21.20
2014,08,10,10,18,21.30
2014,08,10,10,19,21.30
2014,08,10,10,20,21.40
2014,08,10,10,21,21.40
2014,08,10,10,22,21.40
2014,08,10,10,23,21.30
2014,08,10,10,24,21.30
2014,08,10,10,25,21.30
2014,08,10,10,26,21.30
2014,08,10,10,27,21.40
2014,08,10,10,28,21.50
2014,08,10,10,29,21.50
2014,08,10,10,30,21.50
2014,08,10,10,31,21.50
2014,08,10,10,32,21.40
2014,08,10,10,33,21.30
2014,08,10,10,34,21.40
2014,08,10,10,35,21.40
2014,08,10,10,36,21.40
2014,08,10,10,37,21.40
2014,08,10,10,38,21.40
2014,08,10,10,39,21.40
2014,08,10,10,40,21.40
2014,08,10,10,41,21.50
2014,08,10,10,42,21.50
2014,08,10,10,43,21.60
2014,08,10,10,44,21.60
2014,08,10,10,45,21.50
2014,08,10,10,46,21.50
2014,08,10,10,47,21.50
2014,08,10,10,48,21.40
2014,08,10,10,49,21.40
2014,08,10,10,50,21.50
2014,08,10,10,51,21.40
2014,08,10,10,52,21.40
2014,08,10,10,53,21.40
2014,08,10,10,54,21.50
2014,08,10,10,55,21.60
2014,08,10,10,56,21.70
2014,08,10,10,57,21.70
2014,08,10,10,58,21.80
2014,08,10,10,59,22.00
2014,08,10,11,00,22.10
2014,08,10,11,01,22.20
2014,08,10,11,02,22.30
2014,08,10,11,03,22.30
2014,08,10,11,04,22.40
2014,08,10,11,05,22.30
2014,08,10,11,06,22.30
2014,08,10,11,07,22.30
2014,08,10,11,08,22.30
2014,08,10,11,09,22.30
2014,08,10,11,10,22.30
2014,08,10,11,11,22.20
2014,08,10,11,12,22.20
2014,08,10,11,13,22.20
2014,08,10,11,14,22.30
2014,08,10,11,15,22.30
2014,08,10,11,16,22.30
2014,08,10,11,17,22.30
2014,08,10,11,18,22.30
2014,08,10,11,19,22.40
2014,08,10,11,20,22.40
2014,08,10,11,21,22.40
2014,08,10,11,22,22.40
2014,08,10,11,23,22.30
2014,08,10,11,24,22.30
2014,08,10,11,25,22.30
2014,08,10,11,26,22.30
2014,08,10,11,27,22.30
2014,08,10,11,28,22.30
2014,08,10,11,29,22.30
2014,08,10,11,30,22.30
2014,08,10,11,31,22.30
2014,08,10,11,32,22.30
2014,08,10,11,33,22.30
2014,08,10,11,34,22.20
2014,08,10,11,35,22.20
2014,08,10,11,36,22.30
2014,08,10,11,37,22.40
2014,08,10,11,38,22.40
2014,08,10,11,39,22.40
2014,08,10,11,40,22.50
2014,08,10,11,41,22.40
2014,08,10,11,42,22.40
2014,08,10,11,43,22.40
2014,08,10,11,44,22.50
2014,08,10,11,45,22.50
2014,08,10,11,46,22.50
2014,08,10,11,47,22.60
2014,08,10,11,48,22.70
2014,08,10,11,49,22.80
2014,08,10,11,50,22.80
2014,08,10,11,51,22.90
2014,08,10,11,52,22.90
2014,08,10,11,53,22.90
2014,08,10,11,54,22.80
2014,08,10,11,55,22.90
2014,08,10,11,56,22.80
2014,08,10,11,57,22.80
2014,08,10,11,58,22.80
2014,08,10,11,59,22.70
2014,08,10,12,00,22.80
2014,08,10,12,01,22.80
2014,08,10,12,02,22.80
2014,08,10,12,03,22.70
2014,08,10,12,04,22.70
2014,08,10,12,05,22.70
2014,08,10,12,06,22.70
2014,08,10,12,07,22.80
2014,08,10,12,08,22.90
2014,08,10,12,09,23.00
2014,08,10,12,10,23.00
2014,08,10,12,11,23.00
2014,08,10,12,12,23.00
2014,08,10,12,13,22.90
2014,08,10,12,14,22.90
2014,08,10,12,15,23.00
2014,08,10,12,16,23.10
2014,08,10,12,17,23.10
2014,08,10,12,18,23.20
2014,08,10,12,19,23.30
2014,08,10,12,20,23.30
2014,08,10,12,21,23.40
2014,08,10,12,22,23.50
2014,08,10,12,23,23.60
2014,08,10,12,24,23.70
2014,08,10,12,25,23.70
2014,08,10,12,26,23.70
2014,08,10,12,27,23.70
2014,08,10,12,28,23.70
2014,08,10,12,29,23.60
2014,08,10,12,30,23.60
2014,08,10,12,31,23.60
2014,08,10,12,32,23.70
2014,08,10,12,33,23.70
2014,08,10,12,34,23.80
2014,08,10,12,35,23.80
2014,08,10,12,36,23.80
2014,08,10,12,37,23.80
2014,08,10,12,38,23.80
2014,08,10,12,39,23.70
2014,08,10,12,40,23.70
2014,08,10,12,41,23.70
2014,08,10,12,42,23.70
2014,08,10,12,43,23.70
2014,08,10,12,44,23.70
2014,08,10,12,45,23.70
2014,08,10,12,46,23.70
2014,08,10,12,47,23.70
2014,08,10,12,48,23.80
2014,08,10,12,49,23.90
2014,08,10,12,50,24.00
2014,08,10,12,51,24.00
2014,08,10,12,52,24.10
2014,08,10,12,53,24.10
2014,08,10,12,54,24.10
2014,08,10,12,55,24.10
2014,08,10,12,56,24.10
2014,08,10,12,57,24.20
2014,08,10,12,58,24.20
2014,08,10,12,59,24.20
2014,08,10,13,00,24.20
2014,08,10,13,01,24.20
2014,08,10,13,02,24.20
2014,08,10,13,03,24.20
2014,08,10,13,04,24.20
2014,08,10,13,05,24.10
2014,08,10,13,06,24.10
2014,08,10,13,07,24.10
2014,08,10,13,08,24.20
2014,08,10,13,09,24.20
2014,08,10,13,10,24.30
2014,08,10,13,11,24.30
2014,08,10,13,12,24.40
2014,08,10,13,13,24.40
2014,08,10,13,14,24.50
2014,08,10,13,15,24.50
2014,08,10,13,16,24.50
2014,08,10,13,17,24.50
2014,08,10,13,18,24.50
2014,08,10,13,19,24.60
2014,08,10,13,20,24.60
2014,08,10,13,21,24.60
2014,08,10,13,22,24.60
2014,08,10,13,23,24.60
2014,08,10,13,24,24.60
2014,08,10,13,25,24.60
2014,08,10,13,26,24.70
2014,08,10,13,27,24.70
2014,08,10,13,28,24.70
2014,08,10,13,29,24.60
2014,08,10,13,30,24.60
2014,08,10,13,31,24.60
2014,08,10,13,32,24.60
2014,08,10,13,33,24.70
2014,08,10,13,34,24.70
2014,08,10,13,35,24.60
2014,08,10,13,36,24.50
2014,08,10,13,37,24.40
2014,08,10,13,38,24.40
2014,08,10,13,39,24.30
2014,08,10,13,40,24.30
2014,08,10,13,41,24.40
2014,08,10,13,42,24.40
2014,08,10,13,43,24.40
2014,08,10,13,44,24.40
2014,08,10,13,45,24.30
2014,08,10,13,46,24.30
2014,08,10,13,47,24.30
2014,08,10,13,48,24.40
2014,08,10,13,49,24.40
2014,08,10,13,50,24.40
2014,08,10,13,51,24.40
2014,08,10,13,52,24.40
2014,08,10,13,53,24.40
2014,08,10,13,54,24.40
2014,08,10,13,55,24.30
2014,08,10,13,56,24.40
2014,08,10,13,57,24.40
2014,08,10,13,58,24.40
2014,08,10,13,59,24.50
2014,08,10,14,00,24.50
2014,08,10,14,01,24.60
2014,08,10,14,02,24.60
2014,08,10,14,03,24.70
2014,08,10,14,04,24.70
2014,08,10,14,05,24.70
2014,08,10,14,06,24.70
2014,08,10,14,07,24.60
2014,08,10,14,08,24.60
2014,08,10,14,09,24.60
2014,08,10,14,10,24.60
2014,08,10,14,11,24.60
2014,08,10,14,12,24.50
2014,08,10,14,13,24.40
2014,08,10,14,14,24.40
2014,08,10,14,15,24.40
2014,08,10,14,16,24.40
2014,08,10,14,17,24.40
2014,08,10,14,18,24.50
2014,08,10,14,19,24.50
2014,08,10,14,20,24.50
2014,08,10,14,21,24.50
2014,08,10,14,22,24.60
2014,08,10,14,23,24.60
2014,08,10,14,24,24.70
2014,08,10,14,25,24.80
2014,08,10,14,26,24.90
2014,08,10,14,27,25.00
2014,08,10,14,28,25.00
2014,08,10,14,29,25.00
2014,08,10,14,30,25.10
2014,08,10,14,31,25.10
2014,08,10,14,32,25.10
2014,08,10,14,33,25.20
2014,08,10,14,34,25.20
2014,08,10,14,35,25.20
2014,08,10,14,36,25.30
2014,08,10,14,37,25.30
2014,08,10,14,38,25.30
2014,08,10,14,39,25.30
2014,08,10,14,40,25.30
2014,08,10,14,41,25.30
2014,08,10,14,42,25.30
2014,08,10,14,43,25.20
2014,08,10,14,44,25.20
2014,08,10,14,45,25.20
2014,08,10,14,46,25.20
2014,08,10,14,47,25.20
2014,08,10,14,48,25.20
2014,08,10,14,49,25.20
2014,08,10,14,50,25.20
2014,08,10,14,51,25.20
2014,08,10,14,52,25.30
2014,08,10,14,53,25.30
2014,08,10,14,54,25.30
2014,08,10,14,55,25.40
2014,08,10,14,56,25.40
2014,08,10,14,57,25.50
2014,08,10,14,58,25.50
2014,08,10,14,59,25.60
2014,08,10,15,00,25.60
2014,08,10,15,01,25.60
2014,08,10,15,02,25.60
2014,08,10,15,03,25.60
2014,08,10,15,04,25.60
2014,08,10,15,05,25.50
2014,08,10,15,06,25.50
2014,08,10,15,07,25.40
2014,08,10,15,08,25.40
2014,08,10,15,09,25.40
2014,08,10,15,10,25.40
2014,08,10,15,11,25.40
2014,08,10,15,12,25.40
2014,08,10,15,13,25.40
2014,08,10,15,14,25.40
2014,08,10,15,15,25.40
2014,08,10,15,16,25.40
2014,08,10,15,17,25.40
2014,08,10,15,18,25.30
2014,08,10,15,19,25.30
2014,08,10,15,20,25.30
2014,08,10,15,21,25.30
2014,08,10,15,22,25.20
2014,08,10,15,23,25.20
2014,08,10,15,24,25.20
2014,08,10,15,25,25.10
2014,08,10,15,26,25.10
2014,08,10,15,27,25.10
2014,08,10,15,28,25.10
2014,08,10,15,29,25.20
2014,08,10,15,30,25.20
2014,08,10,15,31,25.20
2014,08,10,15,32,25.20
2014,08,10,15,33,25.30
2014,08,10,15,34,25.30
2014,08,10,15,35,25.40
2014,08,10,15,36,25.50
2014,08,10,15,37,25.70
2014,08,10,15,38,25.80
2014,08,10,15,39,26.00
2014,08,10,15,40,26.10
2014,08,10,15,41,26.10
2014,08,10,15,42,26.20
2014,08,10,15,43,26.10
2014,08,10,15,44,26.10
2014,08,10,15,45,26.10
2014,08,10,15,46,26.20
2014,08,10,15,47,26.30
2014,08,10,15,48,26.30
2014,08,10,15,49,26.30
2014,08,10,15,50,26.30
2014,08,10,15,51,26.30
2014,08,10,15,52,26.30
2014,08,10,15,53,26.40
2014,08,10,15,54,26.40
2014,08,10,15,55,26.30
2014,08,10,15,56,26.20
2014,08,10,15,57,26.10
2014,08,10,15,58,26.00
2014,08,10,15,59,25.80
2014,08,10,16,00,25.70
2014,08,10,16,01,25.60
2014,08,10,16,02,25.60
2014,08,10,16,03,25.60
2014,08,10,16,04,25.70
2014,08,10,16,05,25.70
2014,08,10,16,06,25.70
2014,08,10,16,07,25.60
2014,08,10,16,08,25.60
2014,08,10,16,09,25.60
2014,08,10,16,10,25.70
2014,08,10,16,11,25.70
2014,08,10,16,12,25.80
2014,08,10,16,13,25.80
2014,08,10,16,14,25.80
2014,08,10,16,15,25.80
2014,08,10,16,16,25.90
2014,08,10,16,17,26.00
2014,08,10,16,18,26.00
2014,08,10,16,19,26.10
2014,08,10,16,20,26.10
2014,08,10,16,21,26.10
2014,08,10,16,22,26.10
2014,08,10,16,23,26.00
2014,08,10,16,24,25.90
2014,08,10,16,25,25.90
2014,08,10,16,26,25.90
2014,08,10,16,27,25.90
2014,08,10,16,28,25.80
2014,08,10,16,29,25.80
2014,08,10,16,30,25.70
2014,08,10,16,31,25.70
2014,08,10,16,32,25.70
2014,08,10,16,33,25.70
2014,08,10,16,34,25.70
2014,08,10,16,35,25.70
2014,08,10,16,36,25.80
2014,08,10,16,37,25.80
2014,08,10,16,38,25.80
2014,08,10,16,39,25.70
2014,08,10,16,40,25.60
2014,08,10,16,41,25.50
2014,08,10,16,42,25.40
2014,08,10,16,43,25.40
2014,08,10,16,44,25.40
2014,08,10,16,45,25.40
2014,08,10,16,46,25.40
2014,08,10,16,47,25.30
2014,08,10,16,48,25.30
2014,08,10,16,49,25.30
2014,08,10,16,50,25.30
2014,08,10,16,51,25.30
2014,08,10,16,52,25.30
2014,08,10,16,53,25.30
2014,08,10,16,54,25.40
2014,08,10,16,55,25.40
2014,08,10,16,56,25.40
2014,08,10,16,57,25.40
2014,08,10,16,58,25.40
2014,08,10,16,59,25.50
2014,08,10,17,00,25.50
2014,08,10,17,01,25.50
2014,08,10,17,02,25.50
2014,08,10,17,03,25.50
2014,08,10,17,04,25.50
2014,08,10,17,05,25.60
2014,08,10,17,06,25.70
2014,08,10,17,07,25.80
2014,08,10,17,08,25.80
2014,08,10,17,09,25.90
2014,08,10,17,10,25.90
2014,08,10,17,11,26.00
2014,08,10,17,12,26.00
2014,08,10,17,13,26.00
2014,08,10,17,14,26.00
2014,08,10,17,15,26.00
2014,08,10,17,16,26.00
2014,08,10,17,17,26.00
2014,08,10,17,18,26.00
2014,08,10,17,19,26.00
2014,08,10,17,20,25.90
2014,08,10,17,21,25.90
2014,08,10,17,22,25.80